Regional Weather Roundup
Issued by NWS Northern Indiana

Home | Current Version | Previous Version | Text Only | Print | Product List | Glossary Off
Versions: 1 2 3 4 5 6 7 8 9 10 11 12 13 14 15 16 17 18 19 20 21 22 23 24 25 26 27 28 29 30 31 32 33 34 35 36 37 38 39 40 41 42 43 44 45 46 47 48 49 50

000
ASUS43 KIWX 252110
RWRIWX

KIWX WEATHER ROUNDUP
NATIONAL WEATHER SERVICE NORTHERN INDIANA
500 PM EDT SAT APR 25 2015

NOTE: "FAIR" INDICATES FEW OR NO CLOUDS BELOW 12,000 FEET WITH NO
SIGNIFICANT WEATHER AND/OR OBSTRUCTIONS TO VISIBILITY.

* THESE STATIONS ARE NOT UNDER NWS QUALITY CONTROL. THEY ALSO MAY NOT
  REPORT WEATHER SUCH AS PRECIPITATION OR FOG.

INZ001>027-252200-
NORTHERN INDIANA

CITY           SKY/WX    TMP DP  RH WIND       PRES   REMARKS
GARY*          LGT RAIN  46  41  81 NE18G37   29.70F
VALPARAISO     LGT RAIN  46  42  86 E26G36    29.67F
MICHIGAN CITY* DRIZZLE   45  43  93 E9G17     29.72F
LAPORTE*       LGT RAIN  48  45  90 E18G26    29.71F
KNOX*          CLOUDY    45  37  76 E23       29.68F
SOUTH BEND     CLOUDY    47  41  80 E16G23    29.75F
ELKHART*       CLOUDY    46  41  81 E10       29.77F
GOSHEN         LGT RAIN  46  42  86 E13       29.76F FOG
MONTICELLO*    CLOUDY    45  42  92 E9G26     29.65R
LOGANSPORT*    CLOUDY    43  41  93 NE10G17   29.68F
ROCHESTER*     CLOUDY    46  45  93 E15G25    29.69F
WARSAW*        LGT RAIN  43  41  93 E14       29.73F
ANGOLA*        CLOUDY    45  37  76 E9        29.79R
FORT WAYNE     RAIN      46  43  89 E14       29.75F FOG
HUNTINGTON*    DRIZZLE   44  42  93 E10G20    29.70F
MARION*        LGT RAIN  43  40  89 E22G28    29.64F

$$
INZ028>050-252200-
CENTRAL INDIANA

CITY           SKY/WX    TMP DP  RH WIND       PRES   REMARKS
LAFAYETTE      CLOUDY    45  42  89 E20G25    29.62F
KOKOMO*        CLOUDY    45  41  87 E18       29.66F
MUNCIE*        LGT RAIN  44  40  85 NE14      29.70R
INDIANAPOLIS   CLOUDY    47  43  86 E15       29.61F

$$
MIZ043>046-050>051-056>058-064>065-071>073-077>080-252200-
SOUTHWEST LOWER MICHIGAN

CITY           SKY/WX    TMP DP  RH WIND       PRES   REMARKS
BATTLE CREEK   CLOUDY    50  36  58 E7        29.79F
BENTON HARBOR  LGT RAIN  47  42  83 NE10      29.77F
COLDWATER*     CLOUDY    46  31  54 E6        29.79S
HILLSDALE*     CLOUDY    46  26  44 E9        29.79S
HOLLAND        CLOUDY    54  36  50 E9        29.79F
GRAND RAPIDS   PTSUNNY   55  30  38 E13       29.79F
KALAMAZOO      CLOUDY    50  37  61 VRB6      29.79F
STURGIS*       LGT RAIN  45  41  87 E8        29.78F
THREE RIVERS*  LGT RAIN  46  40  80 E5        29.80S

$$
OHZ001>008-015>018-024>025-252200-
NORTHWEST OHIO

CITY           SKY/WX    TMP DP  RH WIND       PRES   REMARKS
WAUSEON*       FAIR      46  25  42 E13G20    29.80R
DEFIANCE       LGT RAIN  46  39  76 NE10      29.80R
FINDLAY        LGT RAIN  48  40  73 NE10      29.76R
TOLEDO EXPRESS CLOUDY    45  26  47 NE16      29.79S
TOLEDO METCALF CLOUDY    45  26  47 NE13G21   29.80S
LIMA           LGT RAIN  45  41  86 E6        29.74R FOG

$$
AND FOR LAKE MICHIGAN COASTAL AND OPEN LAKE BUOY OBSERVATIONS

STATION/POSITION TEMP    WIND        PRES    VSBY  WAVE
                 AIR SEA DIR/SP/G                  HT/PER
                 (F)     (DEG/KT/KT) (MB)    (MI)  (FT/S)
CALUMET HARBOR    44      30/ 15/ 22   N/A
MICHIGAN CITY     45      50/ 17/ 21   N/A
BURNS HARBOR      45      70/ 21/ 24 1006.1F
SAINT JOSEPH      50      30/  4/ 13 1008.8F
MICHIGAN CITY     45 45   80/ 17/ 21   N/A           2/ 3

$$
&&


USA.gov is the U.S. government's official web portal to all federal, state and local government web resources and services.